• In Germany
  • List of Countries
  • For 7 days
  • Water Temperature
  • Satellite Maps
  • Weather Map
  • Weather Widgets
  • user-avatar
    Login

    Hourly Weather Neiva

    Today, 16 July, Monday

    Time Temperature Precipitation Wind Pressure Humidity
    00:00 +24°C° 0 mm 2 mps 722 mmHg 67%
    01:00 +24°C° 0 mm 2 mps 722 mmHg 66%
    02:00 +24°C° 0 mm 2 mps 722 mmHg 66%
    03:00 +24°C° 0 mm 2 mps 722 mmHg 66%
    04:00 +24°C° 0 mm 2 mps 722 mmHg 65%
    05:00 +24°C° 0 mm 2 mps 722 mmHg 65%
    06:00 +25°C° 0 mm 2 mps 722 mmHg 64%
    07:00 +25°C° 0 mm 2 mps 723 mmHg 63%
    08:00 +28°C° 0 mm 2 mps 723 mmHg 56%
    09:00 +30°C° 0 mm 2 mps 723 mmHg 49%
    10:00 +32°C° 0 mm 2 mps 723 mmHg 43%
    11:00 +34°C° 0 mm 3 mps 723 mmHg 41%
    12:00 +35°C° 0 mm 3 mps 722 mmHg 39%
    13:00 +36°C° 0 mm 3 mps 722 mmHg 37%
    14:00 +36°C° 0 mm 3 mps 721 mmHg 38%
    15:00 +35°C° 0 mm 3 mps 720 mmHg 40%
    16:00 +35°C° 0 mm 3 mps 720 mmHg 42%
    17:00 +33°C° 0 mm 3 mps 720 mmHg 49%
    18:00 +30°C° 0 mm 2 mps 720 mmHg 56%
    19:00 +27°C° 0 mm 2 mps 721 mmHg 63%
    20:00 +27°C° 0 mm 2 mps 721 mmHg 63%
    21:00 +27°C° 0 mm 2 mps 722 mmHg 63%
    22:00 +26°C° 0 mm 2 mps 723 mmHg 63%
    23:00 +26°C° 0.1 mm 2 mps 723 mmHg 63%

    Tomorrow, 17 July, Tuesday

    Time Temperature Precipitation Wind Pressure Humidity
    00:00 +26°C° 0.1 mm 2 mps 723 mmHg 64%
    01:00 +26°C° 0.1 mm 2 mps 723 mmHg 64%
    02:00 +25°C° 0.1 mm 2 mps 722 mmHg 66%
    03:00 +25°C° 0.1 mm 2 mps 722 mmHg 67%
    04:00 +25°C° 0.1 mm 2 mps 722 mmHg 69%
    05:00 +25°C° 0.1 mm 2 mps 722 mmHg 68%
    06:00 +25°C° 0.1 mm 2 mps 722 mmHg 68%
    07:00 +26°C° 0.1 mm 2 mps 723 mmHg 67%
    08:00 +28°C° 0 mm 2 mps 723 mmHg 62%
    09:00 +30°C° 0 mm 2 mps 723 mmHg 56%
    10:00 +31°C° 0 mm 2 mps 724 mmHg 51%
    11:00 +33°C° 0.1 mm 3 mps 723 mmHg 51%
    12:00 +33°C° 0.1 mm 3 mps 723 mmHg 51%
    13:00 +34°C° 0.1 mm 3 mps 722 mmHg 51%
    14:00 +33°C° 0.1 mm 3 mps 721 mmHg 51%
    15:00 +33°C° 0.1 mm 3 mps 721 mmHg 52%
    16:00 +33°C° 0.1 mm 3 mps 720 mmHg 53%
    17:00 +30°C° 0 mm 3 mps 720 mmHg 59%
    18:00 +28°C° 0 mm 2 mps 721 mmHg 65%
    19:00 +27°C° 0 mm 2 mps 721 mmHg 71%
    20:00 +26°C° 0 mm 2 mps 722 mmHg 70%
    21:00 +26°C° 0 mm 2 mps 722 mmHg 69%
    22:00 +26°C° 0 mm 2 mps 723 mmHg 68%
    23:00 +26°C° 0.1 mm 2 mps 722 mmHg 67%

    Day after tomorrow, 18 July, Wednesday

    Time Temperature Precipitation Wind Pressure Humidity
    00:00 +25°C° 0.1 mm 2 mps 722 mmHg 67%
    01:00 +25°C° 0.1 mm 2 mps 722 mmHg 66%
    02:00 +25°C° 0.1 mm 2 mps 722 mmHg 67%
    03:00 +25°C° 0.1 mm 2 mps 721 mmHg 67%
    04:00 +25°C° 0.1 mm 2 mps 721 mmHg 68%
    05:00 +25°C° 0.1 mm 2 mps 721 mmHg 67%
    06:00 +26°C° 0.1 mm 2 mps 721 mmHg 67%
    07:00 +26°C° 0.1 mm 1 mps 722 mmHg 66%
    08:00 +28°C° 0.1 mm 2 mps 722 mmHg 61%
    09:00 +30°C° 0.1 mm 2 mps 722 mmHg 56%
    10:00 +32°C° 0.1 mm 2 mps 723 mmHg 50%
    11:00 +32°C° 0.2 mm 2 mps 722 mmHg 49%
    12:00 +34°C° 0.2 mm 2 mps 722 mmHg 48%
    13:00 +35°C° 0.2 mm 3 mps 721 mmHg 47%
    14:00 +35°C° 0.2 mm 3 mps 720 mmHg 49%
    15:00 +34°C° 0.2 mm 3 mps 719 mmHg 51%
    16:00 +34°C° 0.2 mm 3 mps 719 mmHg 52%
    17:00 +31°C° 0.1 mm 2 mps 719 mmHg 59%
    18:00 +29°C° 0.1 mm 2 mps 720 mmHg 66%
    19:00 +27°C° 0.1 mm 2 mps 720 mmHg 73%
    20:00 +26°C° 0 mm 2 mps 720 mmHg 74%
    21:00 +26°C° 0 mm 2 mps 721 mmHg 74%
    22:00 +25°C° 0 mm 2 mps 722 mmHg 75%
    23:00 +25°C° 0.1 mm 2 mps 721 mmHg 73%

    19 July, Thursday

    Time Temperature Precipitation Wind Pressure Humidity
    00:00 +25°C° 0.1 mm 2 mps 721 mmHg 72%
    01:00 +25°C° 0.1 mm 2 mps 721 mmHg 71%
    02:00 +25°C° 0.1 mm 2 mps 721 mmHg 71%
    03:00 +25°C° 0.1 mm 1 mps 721 mmHg 70%
    04:00 +25°C° 0.1 mm 1 mps 720 mmHg 70%
    05:00 +25°C° 0.2 mm 1 mps 721 mmHg 69%
    06:00 +25°C° 0.2 mm 1 mps 721 mmHg 69%
    07:00 +26°C° 0.2 mm 1 mps 722 mmHg 68%
    08:00 +27°C° 0.2 mm 2 mps 722 mmHg 63%
    09:00 +29°C° 0.2 mm 2 mps 722 mmHg 58%
    10:00 +31°C° 0.2 mm 2 mps 722 mmHg 53%
    11:00 +32°C° 0.2 mm 2 mps 722 mmHg 50%
    12:00 +34°C° 0.2 mm 2 mps 721 mmHg 48%
    13:00 +35°C° 0.2 mm 3 mps 721 mmHg 46%
    14:00 +34°C° 0.2 mm 3 mps 720 mmHg 47%
    15:00 +34°C° 0.2 mm 3 mps 720 mmHg 49%
    16:00 +34°C° 0.2 mm 3 mps 719 mmHg 50%
    17:00 +31°C° 0.1 mm 2 mps 719 mmHg 57%
    18:00 +29°C° 0.1 mm 2 mps 720 mmHg 64%
    19:00 +27°C° 0.1 mm 2 mps 720 mmHg 71%
    20:00 +27°C° 0 mm 2 mps 721 mmHg 71%
    21:00 +26°C° 0 mm 2 mps 721 mmHg 71%
    22:00 +26°C° 0 mm 2 mps 722 mmHg 71%
    23:00 +26°C° 0.1 mm 2 mps 722 mmHg 71%

    20 July, Friday

    Time Temperature Precipitation Wind Pressure Humidity
    00:00 +25°C° 0.1 mm 2 mps 722 mmHg 70%
    01:00 +25°C° 0.1 mm 2 mps 721 mmHg 69%
    02:00 +25°C° 0.3 mm 1 mps 721 mmHg 70%
    03:00 +25°C° 0.3 mm 1 mps 721 mmHg 70%
    04:00 +25°C° 0.3 mm 1 mps 721 mmHg 71%
    05:00 +25°C° 0.2 mm 1 mps 721 mmHg 70%
    06:00 +26°C° 0.2 mm 1 mps 722 mmHg 69%
    07:00 +26°C° 0.2 mm 1 mps 722 mmHg 68%
    08:00 +28°C° 0.1 mm 2 mps 722 mmHg 62%
    09:00 +30°C° 0.1 mm 2 mps 722 mmHg 56%
    10:00 +32°C° 0.1 mm 2 mps 723 mmHg 51%
    11:00 +32°C° 0.1 mm 2 mps 722 mmHg 50%
    12:00 +34°C° 0.1 mm 2 mps 721 mmHg 49%
    13:00 +34°C° 0.1 mm 3 mps 721 mmHg 48%
    14:00 +34°C° 0.2 mm 3 mps 720 mmHg 50%
    15:00 +34°C° 0.2 mm 3 mps 720 mmHg 52%
    16:00 +33°C° 0.2 mm 3 mps 719 mmHg 54%
    17:00 +30°C° 0 mm 2 mps 719 mmHg 60%
    18:00 +29°C° 0 mm 2 mps 720 mmHg 65%
    19:00 +27°C° 0 mm 2 mps 720 mmHg 71%
    20:00 +26°C° 0 mm 2 mps 721 mmHg 71%
    21:00 +26°C° 0 mm 2 mps 721 mmHg 70%
    22:00 +26°C° 0 mm 2 mps 722 mmHg 69%
    23:00 +26°C° 0.1 mm 2 mps 722 mmHg 68%

    21 July, Saturday

    Time Temperature Precipitation Wind Pressure Humidity
    00:00 +26°C° 0.1 mm 2 mps 722 mmHg 67%
    01:00 +25°C° 0.1 mm 2 mps 721 mmHg 66%
    02:00 +25°C° 0.1 mm 2 mps 721 mmHg 67%
    03:00 +25°C° 0.1 mm 2 mps 721 mmHg 68%
    04:00 +25°C° 0.1 mm 2 mps 721 mmHg 69%
    05:00 +25°C° 0.1 mm 1 mps 721 mmHg 68%
    06:00 +26°C° 0.1 mm 1 mps 721 mmHg 67%
    07:00 +26°C° 0.1 mm 1 mps 722 mmHg 66%
    08:00 +28°C° 0 mm 2 mps 722 mmHg 60%
    09:00 +30°C° 0 mm 2 mps 722 mmHg 53%
    10:00 +32°C° 0 mm 2 mps 722 mmHg 47%
    11:00 +34°C° 0.1 mm 2 mps 721 mmHg 46%
    12:00 +35°C° 0.1 mm 2 mps 721 mmHg 45%
    13:00 +36°C° 0.1 mm 2 mps 720 mmHg 43%
    14:00 +36°C° 0.2 mm 2 mps 720 mmHg 45%
    15:00 +35°C° 0.2 mm 2 mps 719 mmHg 46%
    16:00 +35°C° 0.2 mm 2 mps 718 mmHg 48%
    17:00 +32°C° 0.1 mm 2 mps 719 mmHg 55%
    18:00 +30°C° 0.1 mm 2 mps 719 mmHg 62%
    19:00 +28°C° 0.1 mm 2 mps 720 mmHg 69%
    20:00 +27°C° 0 mm 2 mps 720 mmHg 69%
    21:00 +27°C° 0 mm 2 mps 721 mmHg 69%
    22:00 +27°C° 0 mm 2 mps 721 mmHg 70%
    23:00 +26°C° 0.2 mm 2 mps 721 mmHg 70%
    Show more